Weather in Drabeši

Latvia     57°14′37″N   25°16′39″E
temp.,
°C
wind,
m/s
gust,
m/s
humid.,
%
clouds,
%
prec.,
mm/h
press.,
hPa
HPBL,
m
10 april, sat
sat1000:00+4ssw7166671 0.0 10091266
03:00+4sw61377100 0.0 1010989
06:00+3ssw51184100 0.0 1010880
09:00+3ssw41192100 0.7 1011761
12:00+4sw4992100 1.0 1011798
15:00+5wsw596999 1.9 10131221
18:00+6w59423 0.1 10151777
21:00+1w11630 0.1 101810
11 april, sun
sun1100:000s22680 0.0 102019
03:000s22695 0.0 102219
06:00−1sse226871 0.0 102325
09:00+4sse2352100 0.0 1024265
12:00+8sse344891 0.0 10241123
15:00+9se4564100 0.0 10231090
18:00+8se41080100 0.0 1022609
21:00+8se4149093 0.0 1022419
12 april, mon
mon1200:00+9sse5168399 0.0 1021526
03:00+8sse5157945 0.0 1021449
06:00+8sse51573100 0.0 1020420
09:00+9sse61563100 0.0 1020657
12:00+13s61249100 0.0 10201023
15:00+15s51141100 0.0 10191511
18:00+13s51046100 0.0 10181373
21:00+11ssw41059100 0.0 1018758
13 april, tue
tue1300:00+10s41068100 0.0 1018490
03:00+8s3884100 0.0 1017358
06:00+8wsw2592100 0.0 1017388
09:00+5wnw3692100 0.1 1018422
12:00+4wnw3779100 0.1 1020611
15:00+5nw3563100 0.1 1021735
18:00+6nw4655100 0.0 1021895
21:00+3nw2671100 0.0 1022388
14 april, wed
wed1400:00+2nw2684100 0.0 1024354
03:000n388966 0.0 1024366
06:00−1n3990100 0.0 1025383
09:00+1n476963 0.0 1026578
12:00+5nne464864 0.0 10261117
15:00+7nne5640100 0.0 10251417
18:00+7nne464285 0.0 10251435
21:00+3nne3957100 0.0 1026347